When you browse on this site, cookies collect data to enhance your experience and personalize the content and advertising you see.
Visit our Privacy Policy to learn more. By continuing to use the site, you agree to this use of cookies and data.
  • In Österreich
  • Länderverzeichnis
  • Für 7 Tage
  • Wassertemperatur
  • Wetterkarte
  • News
  • Widgets
  • user-avatar
    Anmelden

    Stündliche Wetter La Sierra

    Heute, 23 September, Montag

    Zeit Temperatur Niederschläge Wind Luftdruck Luftfeuchtigkeit
    00:00 +16°C° 0.1 mm 1 m/S 623 mmHg 87%
    01:00 +15°C° 0 mm 1 m/S 623 mmHg 86%
    02:00 +15°C° 0 mm 1 m/S 623 mmHg 86%
    03:00 +15°C° 0 mm 1 m/S 623 mmHg 86%
    04:00 +15°C° 0 mm 1 m/S 623 mmHg 86%
    05:00 +16°C° 0 mm 1 m/S 624 mmHg 85%
    06:00 +16°C° 0 mm 1 m/S 624 mmHg 83%
    07:00 +18°C° 0 mm 1 m/S 625 mmHg 82%
    08:00 +20°C° 0 mm 1 m/S 625 mmHg 73%
    09:00 +23°C° 0 mm 1 m/S 626 mmHg 65%
    10:00 +25°C° 0 mm 1 m/S 627 mmHg 56%
    11:00 +26°C° 0.1 mm 1 m/S 627 mmHg 53%
    12:00 +26°C° 0.1 mm 1 m/S 626 mmHg 51%
    13:00 +27°C° 0.1 mm 1 m/S 626 mmHg 48%
    14:00 +27°C° 0.3 mm 1 m/S 625 mmHg 52%
    15:00 +26°C° 0.3 mm 1 m/S 625 mmHg 56%
    16:00 +25°C° 0.3 mm 1 m/S 624 mmHg 60%
    17:00 +23°C° 0.4 mm 1 m/S 624 mmHg 69%
    18:00 +21°C° 0.4 mm 1 m/S 623 mmHg 78%
    19:00 +19°C° 0.4 mm 1 m/S 623 mmHg 87%
    20:00 +18°C° 0.1 mm 1 m/S 623 mmHg 86%
    21:00 +18°C° 0.1 mm 1 m/S 623 mmHg 85%
    22:00 +16°C° 0.1 mm 1 m/S 623 mmHg 83%
    23:00 +16°C° 0 mm 1 m/S 623 mmHg 84%

    Morgen, 24 September, Dienstag

    Zeit Temperatur Niederschläge Wind Luftdruck Luftfeuchtigkeit
    00:00 +16°C° 0 mm 1 m/S 623 mmHg 84%
    01:00 +16°C° 0 mm 1 m/S 623 mmHg 84%
    02:00 +16°C° 0 mm 1 m/S 623 mmHg 84%
    03:00 +16°C° 0 mm 1 m/S 623 mmHg 85%
    04:00 +16°C° 0 mm 1 m/S 623 mmHg 85%
    05:00 +16°C° 0.1 mm 1 m/S 623 mmHg 84%
    06:00 +18°C° 0.1 mm 1 m/S 624 mmHg 84%
    07:00 +18°C° 0.1 mm 1 m/S 624 mmHg 84%
    08:00 +20°C° 0.1 mm 1 m/S 625 mmHg 78%
    09:00 +22°C° 0.1 mm 1 m/S 626 mmHg 73%
    10:00 +23°C° 0.1 mm 1 m/S 627 mmHg 67%
    11:00 +24°C° 0.3 mm 1 m/S 626 mmHg 66%
    12:00 +24°C° 0.3 mm 1 m/S 626 mmHg 65%
    13:00 +25°C° 0.3 mm 1 m/S 625 mmHg 63%
    14:00 +25°C° 0.2 mm 1 m/S 625 mmHg 62%
    15:00 +25°C° 0.2 mm 1 m/S 624 mmHg 62%
    16:00 +25°C° 0.2 mm 1 m/S 624 mmHg 61%
    17:00 +23°C° 0.5 mm 1 m/S 624 mmHg 70%
    18:00 +21°C° 0.5 mm 1 m/S 623 mmHg 79%
    19:00 +19°C° 0.5 mm 1 m/S 623 mmHg 88%
    20:00 +19°C° 0.4 mm 1 m/S 623 mmHg 88%
    21:00 +18°C° 0.4 mm 1 m/S 624 mmHg 88%
    22:00 +18°C° 0.4 mm 1 m/S 624 mmHg 88%
    23:00 +16°C° 0.3 mm 1 m/S 624 mmHg 88%

    übermorgen, 25 September, Mittwoch

    Zeit Temperatur Niederschläge Wind Luftdruck Luftfeuchtigkeit
    00:00 +16°C° 0.3 mm 1 m/S 623 mmHg 88%
    01:00 +16°C° 0.3 mm 1 m/S 623 mmHg 88%
    02:00 +16°C° 0.1 mm 1 m/S 623 mmHg 88%
    03:00 +16°C° 0.1 mm 1 m/S 623 mmHg 88%
    04:00 +16°C° 0.1 mm 1 m/S 623 mmHg 87%
    05:00 +16°C° 0 mm 1 m/S 623 mmHg 86%
    06:00 +18°C° 0 mm 1 m/S 624 mmHg 85%
    07:00 +18°C° 0 mm 1 m/S 625 mmHg 83%
    08:00 +20°C° 0.1 mm 1 m/S 625 mmHg 78%
    09:00 +22°C° 0.1 mm 1 m/S 626 mmHg 73%
    10:00 +24°C° 0.1 mm 1 m/S 627 mmHg 67%
    11:00 +25°C° 0.7 mm 1 m/S 627 mmHg 66%
    12:00 +25°C° 0.7 mm 1 m/S 626 mmHg 65%
    13:00 +26°C° 0.7 mm 1 m/S 626 mmHg 64%
    14:00 +25°C° 1.2 mm 1 m/S 625 mmHg 69%
    15:00 +24°C° 1.2 mm 1 m/S 624 mmHg 73%
    16:00 +24°C° 1.2 mm 1 m/S 624 mmHg 78%
    17:00 +22°C° 1 mm 1 m/S 624 mmHg 82%
    18:00 +21°C° 1 mm 1 m/S 623 mmHg 87%
    19:00 +19°C° 1 mm 1 m/S 623 mmHg 92%
    20:00 +19°C° 0.2 mm 1 m/S 624 mmHg 91%
    21:00 +19°C° 0.2 mm 1 m/S 624 mmHg 91%
    22:00 +18°C° 0.2 mm 1 m/S 624 mmHg 90%
    23:00 +18°C° 0 mm 1 m/S 624 mmHg 90%

    26 September, Donnerstag

    Zeit Temperatur Niederschläge Wind Luftdruck Luftfeuchtigkeit
    00:00 +16°C° 0 mm 1 m/S 623 mmHg 90%
    01:00 +16°C° 0 mm 1 m/S 623 mmHg 90%
    02:00 +16°C° 0 mm 1 m/S 623 mmHg 89%
    03:00 +16°C° 0 mm 1 m/S 623 mmHg 89%
    04:00 +16°C° 0 mm 1 m/S 623 mmHg 88%
    05:00 +18°C° 0 mm 1 m/S 623 mmHg 86%
    06:00 +18°C° 0 mm 1 m/S 624 mmHg 85%
    07:00 +18°C° 0 mm 1 m/S 624 mmHg 84%
    08:00 +20°C° 0 mm 1 m/S 625 mmHg 78%
    09:00 +22°C° 0 mm 1 m/S 626 mmHg 72%
    10:00 +24°C° 0 mm 1 m/S 626 mmHg 65%
    11:00 +25°C° 0.2 mm 1 m/S 626 mmHg 62%
    12:00 +26°C° 0.2 mm 1 m/S 626 mmHg 58%
    13:00 +27°C° 0.2 mm 2 m/S 626 mmHg 54%
    14:00 +26°C° 0.4 mm 2 m/S 625 mmHg 58%
    15:00 +25°C° 0.4 mm 2 m/S 624 mmHg 62%
    16:00 +24°C° 0.4 mm 2 m/S 624 mmHg 66%
    17:00 +21°C° 0.8 mm 2 m/S 623 mmHg 73%
    18:00 +21°C° 0.8 mm 1 m/S 623 mmHg 81%
    19:00 +19°C° 0.8 mm 1 m/S 623 mmHg 88%
    20:00 +18°C° 0.3 mm 1 m/S 623 mmHg 87%
    21:00 +18°C° 0.3 mm 1 m/S 623 mmHg 87%
    22:00 +16°C° 0.3 mm 1 m/S 623 mmHg 87%
    23:00 +16°C° 0.1 mm 1 m/S 623 mmHg 86%

    27 September, Freitag

    Zeit Temperatur Niederschläge Wind Luftdruck Luftfeuchtigkeit
    00:00 +16°C° 0.1 mm 1 m/S 623 mmHg 85%
    01:00 +15°C° 0.1 mm 1 m/S 622 mmHg 85%
    02:00 +15°C° 0 mm 1 m/S 622 mmHg 84%
    03:00 +15°C° 0 mm 1 m/S 622 mmHg 84%
    04:00 +15°C° 0 mm 1 m/S 622 mmHg 84%
    05:00 +16°C° 0 mm 1 m/S 623 mmHg 82%
    06:00 +16°C° 0 mm 1 m/S 623 mmHg 81%
    07:00 +18°C° 0 mm 1 m/S 624 mmHg 79%
    08:00 +20°C° 0 mm 1 m/S 625 mmHg 72%
    09:00 +23°C° 0 mm 1 m/S 626 mmHg 65%
    10:00 +25°C° 0 mm 1 m/S 627 mmHg 59%
    11:00 +26°C° 0.2 mm 1 m/S 626 mmHg 56%
    12:00 +27°C° 0.2 mm 1 m/S 626 mmHg 54%
    13:00 +27°C° 0.2 mm 1 m/S 625 mmHg 52%
    14:00 +26°C° 0.6 mm 1 m/S 625 mmHg 57%
    15:00 +25°C° 0.6 mm 1 m/S 624 mmHg 63%
    16:00 +24°C° 0.6 mm 1 m/S 623 mmHg 69%
    17:00 +22°C° 1.1 mm 1 m/S 623 mmHg 77%
    18:00 +20°C° 1.1 mm 1 m/S 622 mmHg 85%
    19:00 +18°C° 1.1 mm 1 m/S 622 mmHg 93%
    20:00 +18°C° 0.4 mm 1 m/S 622 mmHg 92%
    21:00 +16°C° 0.4 mm 1 m/S 623 mmHg 91%
    22:00 +16°C° 0.4 mm 1 m/S 623 mmHg 91%
    23:00 +16°C° 0.1 mm 1 m/S 623 mmHg 91%

    28 September, Samstag

    Zeit Temperatur Niederschläge Wind Luftdruck Luftfeuchtigkeit
    00:00 +16°C° 0.1 mm 1 m/S 622 mmHg 90%
    01:00 +15°C° 0.1 mm 1 m/S 622 mmHg 90%
    02:00 +15°C° 0.1 mm 1 m/S 622 mmHg 90%
    03:00 +15°C° 0.1 mm 1 m/S 622 mmHg 89%
    04:00 +15°C° 0.1 mm 1 m/S 622 mmHg 89%
    05:00 +16°C° 0 mm 1 m/S 622 mmHg 87%
    06:00 +16°C° 0 mm 1 m/S 623 mmHg 85%
    07:00 +16°C° 0 mm 0 m/S 624 mmHg 83%
    08:00 +20°C° 0 mm 1 m/S 624 mmHg 76%
    09:00 +23°C° 0 mm 1 m/S 625 mmHg 69%
    10:00 +25°C° 0 mm 1 m/S 626 mmHg 62%
    11:00 +25°C° 0.4 mm 1 m/S 626 mmHg 62%
    12:00 +26°C° 0.4 mm 1 m/S 625 mmHg 63%
    13:00 +26°C° 0.4 mm 1 m/S 624 mmHg 63%
    14:00 +25°C° 1.4 mm 1 m/S 624 mmHg 69%
    15:00 +24°C° 1.4 mm 1 m/S 623 mmHg 75%
    16:00 +23°C° 1.4 mm 1 m/S 622 mmHg 81%
    17:00 +22°C° 1.5 mm 1 m/S 622 mmHg 85%
    18:00 +20°C° 1.5 mm 1 m/S 622 mmHg 90%
    19:00 +19°C° 1.5 mm 1 m/S 622 mmHg 94%
    20:00 +18°C° 0.5 mm 1 m/S 622 mmHg 94%
    21:00 +18°C° 0.5 mm 1 m/S 622 mmHg 94%
    22:00 +18°C° 0.5 mm 1 m/S 623 mmHg 93%
    23:00 +16°C° 0.2 mm 0 m/S 622 mmHg 94%
    Mehr zeigen